Watertown, NY

6:42 AM EST on November 13, 2019 (GMT -0500)
Watertown International

Weather History for KART - September, 2019

Change the Weather History Date:

Monday, September 30, 2019

  Actual Average Record
Temperature  
Mean Temperature 56 °F 54 °F  
Max Temperature 66 °F 64 °F 80 °F (1953)
Min Temperature 46 °F 43 °F 22 °F (1991)
Degree Days  
Heating Degree Days 9 11  
Month to date heating degree days 173 201  
Since 1 July heating degree days 202 274  
Cooling Degree Days 0 0  
Month to date cooling degree days 20 35  
Year to date cooling degree days 341 359  
Growing Degree Days 5 (Base 50)    
Moisture  
Dew Point 49 °F    
Average Humidity 71    
Maximum Humidity 86    
Minimum Humidity 56    
Precipitation  
Precipitation 0.00 in 0.14 in 2.90 in (2010)
Month to date precipitation 3.32 3.72  
Year to date precipitation 31.41 25.52  
Sea Level Pressure  
Sea Level Pressure 30.22 in    
Wind  
Wind Speed 5 mph (ENE)    
Max Wind Speed 12 mph    
Max Gust Speed 14 mph    
Visibility 10 miles    
Events Rain    
T = Trace of Precipitation, MM = Missing Value Source: NWS Daily Summary

Daily Weather History Graph

Daily Weather History Graph

Search for Another Location

Airport or City:

Astronomy

Sep. 30, 2019 Rise Set
Actual Time 7:00 AM EDT 6:47 PM EDT
Civil Twilight 6:31 AM EDT 7:15 PM EDT
Nautical Twilight 5:58 AM EDT 7:49 PM EDT
Astronomical Twilight 5:23 AM EDT 8:23 PM EDT
Moon 9:04 AM EDT (9/30) 8:17 PM EDT (9/30)
Length of Visible Light 12h 44m
Length of Day
11h 46m
Waxing Crescent, 5% of the Moon is Illuminated
Sep 30
Waxing Crescent
Oct 5
First Quarter
Oct 13
Full
Oct 21
Last Quarter
Oct 27
New

Hourly Weather History & Observations

Time (EDT) Temp. Dew Point Humidity Pressure Visibility Wind Dir Wind Speed Gust Speed Precip Events Conditions
12:56 AM 48.0 °F 42.1 °F 80% 30.37 in 10.0 mi NE 6.9 mph - N/A   Clear
1:56 AM 48.0 °F 42.1 °F 80% 30.37 in 10.0 mi NE 8.1 mph - N/A   Clear
2:56 AM 48.0 °F 41.0 °F 77% 30.35 in 10.0 mi ENE 5.8 mph - N/A   Clear
3:56 AM 48.0 °F 41.0 °F 77% 30.34 in 10.0 mi NE 8.1 mph - N/A   Clear
4:56 AM 48.0 °F 42.1 °F 80% 30.33 in 10.0 mi NE 5.8 mph - N/A   Clear
5:56 AM 46.9 °F 42.1 °F 83% 30.31 in 10.0 mi NE 6.9 mph - N/A   Clear
6:56 AM 46.9 °F 43.0 °F 86% 30.30 in 10.0 mi NE 6.9 mph - N/A   Partly Cloudy
7:56 AM 48.0 °F 43.0 °F 83% 30.32 in 10.0 mi NNE 5.8 mph - N/A   Overcast
8:56 AM 50.0 °F 45.0 °F 83% 30.31 in 10.0 mi ENE 5.8 mph - N/A   Overcast
9:56 AM 54.0 °F 46.9 °F 77% 30.31 in 10.0 mi North 5.8 mph - N/A   Overcast
10:56 AM 57.9 °F 48.9 °F 72% 30.28 in 10.0 mi NE 5.8 mph - N/A   Partly Cloudy
11:56 AM 63.0 °F 50.0 °F 63% 30.26 in 10.0 mi NNE 3.5 mph - N/A   Clear
12:56 PM 64.9 °F 48.9 °F 56% 30.24 in 10.0 mi Calm Calm - N/A   Overcast
1:56 PM 64.9 °F 48.9 °F 56% 30.20 in 10.0 mi SSW 3.5 mph - N/A   Overcast
2:56 PM 64.0 °F 50.0 °F 60% 30.19 in 10.0 mi SSW 3.5 mph - N/A   Overcast
3:09 PM 64.0 °F 50.0 °F 60% 30.18 in 10.0 mi SSW 3.5 mph - N/A   Overcast
3:56 PM 63.0 °F 52.0 °F 67% 30.17 in 10.0 mi SW 3.5 mph - N/A   Overcast
4:56 PM 61.0 °F 53.1 °F 75% 30.14 in 10.0 mi SSE 5.8 mph - N/A   Overcast
5:56 PM 60.1 °F 54.0 °F 80% 30.12 in 10.0 mi SSE 8.1 mph - N/A   Overcast
6:56 PM 59.0 °F 54.0 °F 83% 30.12 in 10.0 mi South 4.6 mph - 0.00 in   Overcast
7:56 PM 59.0 °F 54.0 °F 83% 30.12 in 10.0 mi Calm Calm - N/A   Overcast
8:56 PM 59.0 °F 54.0 °F 83% 30.09 in 10.0 mi Calm Calm - N/A   Overcast
9:56 PM 60.1 °F 55.0 °F 83% 30.07 in 10.0 mi Variable 3.5 mph - N/A   Overcast
10:56 PM 60.1 °F 55.0 °F 83% 30.08 in 10.0 mi Calm Calm - N/A   Overcast
11:56 PM 59.0 °F 57.0 °F 93% 30.05 in 6.0 mi Calm Calm - 0.02 in Rain Light Rain